Weather History for KCOU - February, 2013

Change the Weather History Date:

Monday, February 4, 2013

  Actual Average Record
Temperature  
Mean Temperature 39 °F 32 °F  
Max Temperature 54 °F 41 °F 77 °F (1962)
Min Temperature 24 °F 22 °F -16 °F (1895)
Degree Days  
Heating Degree Days 26 34  
Month to date heating degree days 133 136  
Since 1 July heating degree days 2861 3225  
Cooling Degree Days 0 0  
Month to date cooling degree days 0 0  
Year to date cooling degree days 1 0  
Moisture  
Dew Point 26 °F    
Average Humidity 63    
Maximum Humidity 85    
Minimum Humidity 41    
Precipitation  
Precipitation 0.00 in 0.07 in 1.05 in (1971)
Month to date precipitation 0.01 0.27  
Year to date precipitation 2.39 2.19  
Snow  
Snow 0.00 in 0.20 in 5.50 in (1897)
Month to date snowfall 0.0 0.8  
Since 1 July snowfall 4.2 12.2  
Snow Depth 0.00 in    
Sea Level Pressure  
Sea Level Pressure 29.89 in    
Wind  
Wind Speed 9 mph (North)    
Max Wind Speed 20 mph    
Max Gust Speed 22 mph    
Visibility 9 miles    
Events      
T = Trace of Precipitation, MM = Missing Value Source: NWS Daily Summary

Daily Weather History Graph

Daily Weather History Graph

Search for Another Location

Airport or City:

Trip Planner

Search our weather history database for the weather conditions in past years. The results will help you decide how hot, cold, wet, or windy it might be!

Date:

Astronomy

Feb. 04, 2013 Rise Set
Actual Time 7:11 AM CST 5:34 PM CST
Civil Twilight 6:44 AM CST 6:02 PM CST
Nautical Twilight 6:12 AM CST 6:33 PM CST
Astronomical Twilight 5:41 AM CST 7:05 PM CST
Moon 1:47 AM CST 11:59 AM CST
Length of Visible Light 11h 18m
Length of Day
10h 22m
Last Quarter, 37% of the Moon is Illuminated
Feb 4
Last Quarter
Feb 10
New
Feb 17
First Quarter
Feb 25
Full
Mar 4
Last Quarter

Hourly Weather History & Observations

Time (CST) Temp. Windchill Dew Point Humidity Pressure Visibility Wind Dir Wind Speed Gust Speed Precip Events Conditions
12:54 AM 34.0 °F 27.2 °F 19.0 °F 54% 29.91 in 10.0 mi SE 8.1 mph - N/A   Scattered Clouds
1:54 AM 35.1 °F 28.6 °F 21.0 °F 57% 29.88 in 10.0 mi SE 8.1 mph - N/A   Overcast
2:54 AM 36.0 °F 29.6 °F 21.9 °F 57% 29.85 in 10.0 mi SE 8.1 mph - N/A   Overcast
4:54 AM 39.0 °F 35.7 °F 23.0 °F 53% 29.81 in 10.0 mi SE 4.6 mph - N/A   Mostly Cloudy
5:54 AM 34.0 °F - 25.0 °F 70% 29.82 in 10.0 mi Calm Calm - N/A   Mostly Cloudy
6:54 AM 34.0 °F 28.8 °F 24.1 °F 67% 29.83 in 10.0 mi North 5.8 mph - N/A   Partly Cloudy
7:54 AM 34.0 °F 29.8 °F 25.0 °F 70% 29.83 in 10.0 mi South 4.6 mph - N/A   Mostly Cloudy
8:54 AM 41.0 °F 38.0 °F 28.0 °F 60% 29.84 in 10.0 mi SSW 4.6 mph - N/A   Clear
9:54 AM 52.0 °F - 30.0 °F 43% 29.83 in 10.0 mi West 10.4 mph - N/A   Clear
10:54 AM 52.0 °F - 30.0 °F 43% 29.84 in 10.0 mi WNW 15.0 mph - N/A   Clear
11:54 AM 52.0 °F - 28.9 °F 41% 29.85 in 10.0 mi West 13.8 mph - N/A   Clear
12:54 PM 53.1 °F - 30.0 °F 41% 29.85 in 10.0 mi NW 15.0 mph - N/A   Clear
1:54 PM 52.0 °F - 30.9 °F 45% 29.85 in 10.0 mi NNW 13.8 mph - N/A   Clear
2:54 PM 50.0 °F - 30.9 °F 48% 29.85 in 10.0 mi NNW 13.8 mph - N/A   Clear
3:54 PM 48.0 °F - 30.9 °F 52% 29.88 in 10.0 mi NNW 16.1 mph - N/A   Clear
4:54 PM 39.9 °F 31.1 °F 28.9 °F 65% 29.91 in 10.0 mi North 17.3 mph - N/A   Clear
5:54 PM 34.0 °F 25.5 °F 27.0 °F 75% 29.94 in 10.0 mi North 11.5 mph - N/A   Clear
6:54 PM 30.9 °F 24.3 °F 25.0 °F 79% 29.95 in 10.0 mi NNE 6.9 mph - N/A   Clear
7:54 PM 30.0 °F 22.4 °F 25.0 °F 82% 29.99 in 10.0 mi North 8.1 mph - N/A   Clear
8:54 PM 28.9 °F 21.9 °F 24.1 °F 82% 29.99 in 8.0 mi NNE 6.9 mph - N/A   Clear
9:54 PM 27.0 °F 23.0 °F 23.0 °F 85% 29.98 in 7.0 mi NE 3.5 mph - N/A   Clear
10:54 PM 26.1 °F - 23.0 °F 88% 29.98 in 6.0 mi Calm Calm - N/A   Clear
11:54 PM 25.0 °F - 21.9 °F 88% 29.99 in 5.0 mi Calm Calm - N/A   Clear